Flag for Poland Weather past 2 weeks in Lódz, Poland

Now
72 °F

Passing clouds.


Feels Like: 74 °F
Forecast: 69 / 77 °F
Wind: 2 mph from Southeast

Location: Lodz

Current Time: Jul 30, 2014 at 11:38:54 PM

Latest Report: Jul 30, 2014 at 10:00 PM


Visibility: 9 mi

Pressure: 29.77 "Hg

Humidity: 74%

Dew point: 63 °F

Location of LódzLocation

Historic Weather in Lódz — Graph

°F

Lódz temperature yesterday

Maximum temperature yesterday: 87 °F (at 5:00 PM)
Minimum temperature yesterday: 65 °F (at 6:00 AM)
Average temperature yesterday: 75 °F

Past Weeks' High & Low Weather Summary

 TemperatureHumidityPressure
High88 °F (Jul 20, 4:00 PM)97% (Jul 19, 4:00 AM)30.16 "Hg (Jul 19, 4:00 AM)
Low54 °F (Jul 17, 5:00 AM)27% (Jul 16, 6:00 PM)29.72 "Hg (Jul 30, 6:00 PM)
Average72 °F69%29.96 "Hg
* Reported Jul 15 10:00 PM — Jul 30 10:00 PM, Lódz, Weather by CustomWeather, © 2014

Note: Actual official high and low records may vary slightly from our data, if they occured in-between our weather recording intervals... More about our weather records

Advertising

Lódz weather history for previous 24 hours

 ConditionsComfort  
Time TempWeatherWind HumidityBarometerVisibility
10:00 PM
Jul 30
72 °FPassing clouds.2 mph74%29.77 "Hg9 mi
9:00 PM75 °FPassing clouds.3 mph66%29.76 "Hg8 mi
8:00 PM79 °FPartly sunny.3 mph58%29.75 "Hg8 mi
7:00 PM80 °FPartly sunny.3 mph53%29.73 "Hg13 mi
6:00 PM82 °FScattered clouds.6 mph52%29.72 "Hg7 mi
5:00 PM83 °FScattered clouds.7 mph51%29.73 "Hg9 mi
4:00 PM84 °FScattered clouds.6 mph47%29.73 "Hg6 mi
3:00 PM84 °FScattered clouds.5 mph50%29.73 "Hg7 mi
2:00 PM82 °FScattered clouds.6 mph54%29.74 "Hg8 mi
1:00 PM82 °FScattered clouds.6 mph56%29.75 "Hg7 mi
12:00 PM81 °FPartly sunny.6 mph58%29.75 "Hg9 mi
11:00 AM78 °FScattered clouds.3 mph66%29.76 "Hg6 mi
10:00 AM75 °FScattered clouds.5 mph72%29.77 "Hg9 mi
9:00 AM71 °FPassing clouds.5 mph81%29.77 "Hg7 mi
8:00 AM67 °FSunny.3 mph87%29.77 "Hg9 mi
7:00 AM64 °FPartly sunny.3 mph93%29.78 "Hg6 mi
6:00 AM64 °FSunny.3 mph93%29.77 "Hg6 mi
5:00 AM63 °FPassing clouds.3 mph93%29.77 "Hg7 mi
4:00 AM64 °FPassing clouds.3 mph91%29.77 "Hg9 mi
3:00 AM64 °FClear.3 mph89%29.78 "Hg8 mi
2:00 AM65 °FClear.3 mph87%29.78 "Hg9 mi
1:00 AM66 °FClear.3 mph85%29.79 "Hg8 mi
12:00 AM67 °FClear.3 mph84%29.79 "Hg10 mi
11:00 PM
Jul 29
67 °FPassing clouds.1 mph80%29.79 "Hg10 mi
Weather by CustomWeather, © 2014

See weather overviewHow to use our weather pages